Weather History for Cape Girardeau, MO

Change the Weather History Date:

Sunday, March 17, 2013

  Actual Average Record
Temperature  
Mean Temperature 40 °F 47 °F  
Max Temperature 43 °F 59 °F 94 °F (1982)
Min Temperature 36 °F 36 °F 22 °F (1962)
Degree Days  
Heating Degree Days 25 18  
Month to date heating degree days 398 344  
Since 1 July heating degree days 3637 3841  
Cooling Degree Days 0 0  
Month to date cooling degree days 0 0  
Year to date cooling degree days 0 0  
Moisture  
Dew Point 37 °F    
Average Humidity 83    
Maximum Humidity 93    
Minimum Humidity 73    
Precipitation  
Precipitation 1.13 in 0.16 in 1.21 in (1970)
Month to date precipitation 1.49 2.25  
Year to date precipitation 8.11 9.13  
Sea Level Pressure  
Sea Level Pressure 29.94 in    
Wind  
Wind Speed 12 mph (NE)    
Max Wind Speed 23 mph    
Max Gust Speed 28 mph    
Visibility 5 miles    
Events Rain , Thunderstorm    
T = Trace of Precipitation, MM = Missing Value Source: NWS Daily Summary

Daily Weather History Graph

Daily Weather History Graph

Search for Another Location

Airport:

Trip Planner

Search our weather history database for the weather conditions in past years. The results will help you decide how hot, cold, wet, or windy it might be!

Date:

Astronomy

Mar. 17, 2013 Rise Set
Actual Time 7:05 AM CDT 7:07 PM CDT
Civil Twilight 6:39 AM CDT 7:33 PM CDT
Nautical Twilight 6:09 AM CDT 8:03 PM CDT
Astronomical Twilight 5:39 AM CDT 8:34 PM CDT
Moon 10:25 AM CDT (3/17) 12:08 AM CDT (3/17)
Length of Visible Light 12h 53m
Length of Day
12h 01m
Waxing Crescent, 31% of the Moon is Illuminated
Mar 17
Waxing Crescent
Mar 19
First Quarter
Mar 27
Full
Apr 2
Last Quarter
Apr 10
New

Hourly Weather History & Observations

Time (CDT) Temp. Windchill Dew Point Humidity Pressure Visibility Wind Dir Wind Speed Gust Speed Precip Events Conditions
12:10 AM 44.6 °F 39.2 °F 35.6 °F 71% 30.01 in 9.0 mi North 10.4 mph - N/A   Overcast
12:53 AM 43.0 °F 36.0 °F 36.0 °F 76% 29.97 in 9.0 mi NE 13.8 mph - N/A   Overcast
1:26 AM 42.8 °F 36.2 °F 35.6 °F 76% 29.98 in 10.0 mi NE 12.7 mph 20.7 mph N/A   Overcast
1:53 AM 42.1 °F 34.9 °F 35.1 °F 76% 30.00 in 10.0 mi NNE 13.8 mph - N/A   Overcast
2:16 AM 42.8 °F 35.8 °F 33.8 °F 70% 30.00 in 10.0 mi NE 13.8 mph - N/A   Overcast
2:36 AM 41.0 °F 32.8 °F 33.8 °F 76% 30.00 in 10.0 mi NE 16.1 mph 21.9 mph N/A   Overcast
2:53 AM 41.0 °F 33.5 °F 34.0 °F 76% 29.99 in 10.0 mi NE 13.8 mph - N/A   Overcast
3:41 AM 39.2 °F 32.0 °F 35.6 °F 87% 29.99 in 10.0 mi NE 11.5 mph - N/A   Overcast
3:53 AM 39.9 °F 32.5 °F 35.1 °F 83% 29.99 in 10.0 mi NE 12.7 mph - N/A   Overcast
4:53 AM 39.9 °F 32.5 °F 35.1 °F 83% 30.00 in 10.0 mi NNE 12.7 mph - N/A   Overcast
5:53 AM 39.0 °F 29.9 °F 34.0 °F 82% 30.00 in 10.0 mi NE 17.3 mph 24.2 mph N/A   Overcast
6:43 AM 37.4 °F 28.5 °F 35.6 °F 93% 30.01 in 9.0 mi NNE 15.0 mph - N/A   Overcast
6:51 AM 37.4 °F 28.5 °F 35.6 °F 93% 30.02 in 8.0 mi NNE 15.0 mph - 0.00 in Rain Light Rain
6:53 AM 37.9 °F 30.0 °F 35.1 °F 89% 30.02 in 7.0 mi NNE 12.7 mph - 0.00 in Rain Rain
7:46 AM 37.4 °F 27.5 °F 35.6 °F 93% 30.01 in 9.0 mi NE 18.4 mph - 0.05 in   Overcast
7:53 AM 37.0 °F 28.1 °F 35.1 °F 93% 30.02 in 9.0 mi NE 15.0 mph - 0.05 in   Overcast
8:08 AM 37.4 °F 28.9 °F 35.6 °F 93% 30.03 in 4.0 mi NNE 13.8 mph - 0.01 in Rain Rain
8:17 AM 37.4 °F 28.2 °F 35.6 °F 93% 30.01 in 2.5 mi NNE 16.1 mph - 0.03 in Rain Rain
8:25 AM 37.4 °F 27.8 °F 35.6 °F 93% 30.01 in 5.0 mi NE 17.3 mph 23.0 mph 0.03 in Rain Light Rain
8:34 AM 37.4 °F 28.2 °F 33.8 °F 87% 30.00 in 6.0 mi NE 16.1 mph - 0.03 in   Overcast
8:44 AM 37.4 °F 28.5 °F 33.8 °F 87% 30.03 in 7.0 mi NNE 15.0 mph - 0.03 in   Overcast
8:53 AM 37.0 °F 28.1 °F 34.0 °F 89% 30.05 in 7.0 mi NNE 15.0 mph - 0.03 in Rain Light Rain
9:11 AM 37.4 °F 28.9 °F 35.6 °F 93% 30.01 in 2.0 mi NE 13.8 mph - 0.03 in Rain Light Rain
9:19 AM 37.4 °F 28.5 °F 35.6 °F 93% 30.01 in 4.0 mi NE 15.0 mph - 0.03 in Rain Light Rain
9:40 AM 37.4 °F 28.2 °F 35.6 °F 93% 30.02 in 4.0 mi NNE 16.1 mph 21.9 mph 0.03 in Rain Light Rain
9:53 AM 37.0 °F 28.5 °F 34.0 °F 89% 30.04 in 5.0 mi NNE 13.8 mph - 0.04 in Rain Light Rain
10:18 AM 37.4 °F 29.3 °F 33.8 °F 87% 30.02 in 2.0 mi ENE 12.7 mph - 0.07 in Rain Rain
10:32 AM 37.4 °F 28.5 °F 33.8 °F 87% 30.02 in 1.5 mi NNE 15.0 mph 21.9 mph 0.16 in Rain Heavy Rain
10:38 AM 35.6 °F 27.1 °F 33.8 °F 93% 30.05 in 2.0 mi NNE 12.7 mph 21.9 mph 0.18 in Rain Rain
10:42 AM 35.6 °F 27.1 °F 33.8 °F 93% 30.05 in 3.0 mi NNE 12.7 mph - 0.18 in Rain Light Rain
10:53 AM 37.0 °F 31.6 °F 34.0 °F 89% 30.07 in 2.5 mi NNE 6.9 mph - 0.22 in Rain Heavy Rain
11:05 AM 35.6 °F 28.6 °F 33.8 °F 93% 30.03 in 1.8 mi NE 9.2 mph - 0.05 in Rain Heavy Rain
11:17 AM 35.6 °F 26.6 °F 33.8 °F 93% 30.02 in 2.5 mi NE 13.8 mph - 0.08 in Rain Rain
11:25 AM 35.6 °F 26.6 °F 33.8 °F 93% 30.02 in 3.0 mi NE 13.8 mph - 0.10 in Rain Rain
11:53 AM 37.0 °F 28.9 °F 35.1 °F 93% 30.01 in 5.0 mi NE 12.7 mph 21.9 mph 0.13 in Rain Light Rain
12:04 PM 37.4 °F 28.9 °F 35.6 °F 93% 29.99 in 6.0 mi NE 13.8 mph - 0.01 in Rain Light Rain
12:24 PM 37.4 °F 29.3 °F 35.6 °F 93% 29.99 in 3.0 mi NE 12.7 mph - 0.03 in Rain Rain
12:53 PM 39.0 °F 32.3 °F 37.0 °F 93% 29.97 in 8.0 mi ENE 10.4 mph - 0.05 in Rain Light Rain
1:53 PM 41.0 °F 34.3 °F 37.9 °F 89% 29.94 in 6.0 mi ENE 11.5 mph - 0.01 in Rain Light Rain
2:53 PM 41.0 °F 35.8 °F 39.0 °F 93% 29.93 in 6.0 mi NNE 8.1 mph - 0.01 in Rain Rain
3:53 PM 42.1 °F 35.7 °F 39.0 °F 89% 29.89 in 10.0 mi NE 11.5 mph - 0.01 in   Overcast
4:37 PM 42.8 °F 38.0 °F 39.2 °F 87% 29.88 in 2.0 mi NE 8.1 mph - 0.00 in Rain Light Rain
4:45 PM 42.8 °F 37.5 °F 39.2 °F 87% 29.87 in 1.5 mi NE 9.2 mph - 0.00 in Rain Light Rain
4:53 PM 42.1 °F 36.6 °F 39.9 °F 92% 29.87 in 1.5 mi NE 9.2 mph - 0.00 in Rain Light Rain
5:03 PM 42.8 °F 38.0 °F 39.2 °F 87% 29.87 in 2.0 mi NE 8.1 mph - 0.01 in Rain Light Rain
5:24 PM 42.8 °F 36.6 °F 39.2 °F 87% 29.85 in 1.5 mi NE 11.5 mph - 0.02 in Rain Rain
5:45 PM 42.8 °F 37.0 °F 39.2 °F 87% 29.83 in 1.8 mi ENE 10.4 mph - 0.03 in Rain , Thunderstorm Light Rain
5:53 PM 42.1 °F 35.2 °F 39.9 °F 92% 29.83 in 2.0 mi ENE 12.7 mph - 0.03 in Rain , Thunderstorm Light Thunderstorms and Rain
6:05 PM 42.8 °F 35.8 °F 39.2 °F 87% 29.80 in 1.5 mi East 13.8 mph - 0.07 in Rain Rain
6:15 PM 42.8 °F 35.8 °F 41.0 °F 93% 29.79 in 2.5 mi ENE 13.8 mph - 0.07 in Rain Light Rain
6:19 PM 42.8 °F 35.4 °F 41.0 °F 93% 29.79 in 3.0 mi ENE 15.0 mph - 0.07 in Rain Light Rain
6:33 PM 42.8 °F 36.2 °F 39.2 °F 87% 29.79 in 2.5 mi ENE 12.7 mph - 0.08 in Rain Light Rain
6:44 PM 42.8 °F 36.2 °F 39.2 °F 87% 29.80 in 2.0 mi ENE 12.7 mph - 0.08 in Rain Light Rain
6:47 PM 42.8 °F 36.6 °F 41.0 °F 93% 29.80 in 1.8 mi ENE 11.5 mph - 0.08 in Rain , Thunderstorm Light Rain
6:53 PM 43.0 °F 37.2 °F 41.0 °F 93% 29.81 in 1.8 mi NE 10.4 mph - 0.08 in Rain , Thunderstorm Rain
7:03 PM 42.8 °F 37.0 °F 41.0 °F 93% 29.80 in 2.0 mi NE 10.4 mph - 0.01 in Rain , Thunderstorm Thunderstorms and Rain
7:10 PM 42.8 °F 37.0 °F 41.0 °F 93% 29.81 in 3.0 mi ENE 10.4 mph - 0.01 in Rain , Thunderstorm Light Thunderstorms and Rain
7:32 PM 42.8 °F 35.8 °F 39.2 °F 87% 29.79 in 3.0 mi East 13.8 mph - 0.02 in Rain Light Rain
7:53 PM 42.1 °F 37.7 °F 41.0 °F 96% 29.81 in 4.0 mi NNE 6.9 mph - 0.03 in Rain Light Rain
8:53 PM 42.1 °F 36.1 °F 39.9 °F 92% 29.81 in 10.0 mi NE 10.4 mph - 0.00 in   Overcast
9:53 PM 41.0 °F 35.8 °F 39.9 °F 96% 29.80 in 10.0 mi NE 8.1 mph - N/A   Overcast
10:53 PM 41.0 °F 33.1 °F 39.0 °F 93% 29.77 in 5.0 mi NE 15.0 mph - 0.04 in Rain Rain
11:48 PM 39.2 °F 30.5 °F 37.4 °F 93% 29.74 in 10.0 mi NE 16.1 mph - 0.01 in Rain , Thunderstorm Light Rain
11:53 PM 39.9 °F 31.4 °F 37.9 °F 93% 29.74 in 10.0 mi NE 16.1 mph - 0.01 in Rain , Thunderstorm Light Rain